Current Version              Previous Version:    01  02  03  04  05  06  07  08  09  10  11  12  13  14  15  16  17  18  19  20  21  22  23  24  25  26  27  28  29  30  
   31  32  33  34  35  36  37  38  39  40  41  42  43  44  45  46  47  48  49  50  51  52  53  54  55  56  57  58  59  60  

[Printable]
569
ASUS44 KEWX 201210
RWRTX
SOUTH TEXAS REGIONAL WEATHER ROUNDUP
NATIONAL WEATHER SERVICE AUSTIN/SAN ANTONIO TX
700 AM CDT WED AUG 20 2014

NOTE: "FAIR" INDICATED FEW OR NO CLOUDS BELOW 12,000 FEET WITH NO
SIGNIFICANT WEATHER AND/OR OBSTRUCTIONS TO VISIBILITY.

* - THESE STATIONS ARE NOT NWS OR FAA STATIONS...AND ARE NOT SUBJECT
    TO NWS AND FAA QUALITY CONTROL.

TXZ171-172-183>190-201300-
TEXAS HILL COUNTRY AND EDWARDS PLATEAU

CITY           SKY/WX    TMP DP  RH WIND       PRES   REMARKS
JUNCTION       PTCLDY    73  68  84 MISG      29.96R
6HR MIN TEMP:  73; 6HR MAX TEMP:  79;

*LLANO         MOCLDY    75  70  83 S5        29.99R
BURNET         MOCLDY    75  71  87 VRB3      29.99R
6HR MIN TEMP:  75; 6HR MAX TEMP:  81;

*HORSESHOE BAY CLEAR     76  70  82 S5        29.96R
6HR MIN TEMP:  75; 6HR MAX TEMP:  82;

*KERRVILLE     CLEAR     74  71  89 S12G20    29.98S
6HR MIN TEMP:  73; 6HR MAX TEMP:  76;

*FREDERICKSBRG MOCLDY    73  68  85 S8        29.98R
6HR MIN TEMP:  72; 6HR MAX TEMP:  77;

*ROCKSPRINGS     N/A     72  68  88 SE14        N/A
*BOERNE STAGE  PTCLDY    73  68  83 S8        29.99R
*CASTROVILLE   CLOUDY    77  71  81 SE6       29.97R
HONDO          CLOUDY    76  73  91 SE9       29.97R
6HR MIN TEMP:  75; 6HR MAX TEMP:  80;

*UVALDE        CLOUDY    75  74  94 E6        29.93R
6HR MIN TEMP:  75; 6HR MAX TEMP:  82;

DEL RIO        CLEAR     78  68  71 E13       29.89R
6HR MIN TEMP:  78; 6HR MAX TEMP:  87;

LAUGHLIN AFB   CLEAR     76  71  84 SE12      29.91R
6HR MIN TEMP:  75; 6HR MAX TEMP:  82;

CARRIZO SPRGS  CLEAR     77  70  78 SE10      29.88R
$$

TXZ173-191>194-202-209-217>225-228-201300-
CENTRAL AND SOUTH CENTRAL TEXAS

CITY           SKY/WX    TMP DP  RH WIND       PRES   REMARKS
GEORGETOWN     MOCLDY    79  73  83 S6        29.97R
AUSTIN/BERGSTM MOCLDY    79  75  87 S6        29.95R
6HR MIN TEMP:  78; 6HR MAX TEMP:  81;

AUSTIN/MABRY   MOCLDY    79  74  84 VRB5      29.96R
6HR MIN TEMP:  78; 6HR MAX TEMP:  81;

*AUSTIN/EXEC     N/A     77  73  88 S5        29.96R
*LAGO VISTA    CLOUDY    78  72  82 S7        29.98R
6HR MIN TEMP:  77; 6HR MAX TEMP:  81;

SAN MARCOS     CLOUDY    79  72  78 S8        29.97R
NEW BRAUNFELS  CLOUDY    78  75  90 S7        29.94R
6HR MIN TEMP:  77; 6HR MAX TEMP:  80;

RANDOLPH AFB   MOCLDY    78  74  87 S8        29.96R
6HR MIN TEMP:  78; 6HR MAX TEMP:  80;

PT SAN ANTONIO PTCLDY    77  73  88 S9        29.94R
6HR MIN TEMP:  77; 6HR MAX TEMP:  80;

SAN ANTONIO    MOCLDY    79  73  82 S15       29.96R
6HR MIN TEMP:  79; 6HR MAX TEMP:  81;

STINSON FIELD  PTCLDY    78  74  87 SE6       29.93R
6HR MIN TEMP:  78; 6HR MAX TEMP:  81;

*PLEASANTON    PTCLDY    77  73  88 SE5       29.93S
6HR MIN TEMP:  77; 6HR MAX TEMP:  81;

*LA GRANGE     MOCLDY    79  77  94 CALM      29.94R
6HR MIN TEMP:  79; 6HR MAX TEMP:  82;

*GIDDINGS      MOCLDY    77  74  91 CALM      29.99S
6HR MIN TEMP:  76; 6HR MAX TEMP:  81;

*GONZALES      MOCLDY    79  76  92 S5        29.94R
6HR MIN TEMP:  79; 6HR MAX TEMP:  82;

$$

TXZ163>164-176>182-195>201-210>213-226-227-235-201300-
SOUTHEAST TEXAS

CITY           SKY/WX    TMP DP  RH WIND       PRES   REMARKS
COLLEGE STN    MOCLDY    77  75  93 SE6       29.96R
6HR MIN TEMP:  77; 6HR MAX TEMP:  79;

*BRYAN         MOCLDY    77  74  93 SE6       29.96R
*CALDWELL      MOCLDY    75  75 100 CALM      29.99R FOG
*CROCKETT        N/A    N/A N/A N/A MISG        N/A
*BRENHAM       MOCLDY    77  75  94 CALM      29.96R
6HR MIN TEMP:  77; 6HR MAX TEMP:  82;

HUNTSVILLE     CLEAR     76  74  93 CALM      29.98R
6HR MIN TEMP:  75; 6HR MAX TEMP:  77;

CONROE         CLEAR     71  70  96 CALM      29.98R FOG
6HR MIN TEMP:  70; 6HR MAX TEMP:  74;

HOUSTON BUSH   PTCLDY    74  74 100 CALM      29.96R
6HR MIN TEMP:  74; 6HR MAX TEMP:  78;

HOUSTON HOBBY  PTCLDY    79  75  87 SE3       29.95R
6HR MIN TEMP:  78; 6HR MAX TEMP:  80;

*HOUSTON SW AP CLEAR     75  75 100 MISG      29.96R
6HR MIN TEMP:  74; 6HR MAX TEMP:  76;

PEARLAND       CLEAR     77  73  87 CALM      29.97R
6HR MIN TEMP:  77; 6HR MAX TEMP:  81;

HOUSTON HOOKS  CLEAR     74  74 100 CALM      29.96R
6HR MIN TEMP:  74; 6HR MAX TEMP:  79; 6HR PCP:  0.01;

ELLINGTON FLD  PTCLDY    79  75  89 CALM      29.97R
SUGAR LAND     NOT AVBL
*HOUSTON EXEC  CLEAR     77  77 100 E5        29.97R
*CLEVELAND MUN FOG       71  71  98 CALM      29.98R VSB 1/2
6HR MIN TEMP:  71; 6HR MAX TEMP:  73;

*WHARTON       CLEAR     74  73  95 CALM      29.95R FOG
6HR MIN TEMP:  74; 6HR MAX TEMP:  78;

$$

TXZ214>216-236>238-201300-
THE UPPER TEXAS COAST

CITY           SKY/WX    TMP DP  RH WIND       PRES   REMARKS
*ORANGE          N/A     74  74 100 CALM      30.00R FOG
6HR MIN TEMP:  73; 6HR MAX TEMP:  78;

PORT ARTHUR    PTCLDY    76  74  93 S3        29.97R
6HR MIN TEMP:  76; 6HR MAX TEMP:  81;

GALVESTON      CLEAR     85  77  77 S12       29.96R HX  95
6HR MIN TEMP:  84; 6HR MAX TEMP:  85;

ANGLETON       CLEAR     77  75  93 CALM      29.94R
6HR MIN TEMP:  76; 6HR MAX TEMP:  80;

*BAY CITY      CLEAR     80  80 100 SE3       29.94R
PALACIOS       CLEAR     83  77  82 SE8       29.93R HX  92
6HR MIN TEMP:  83; 6HR MAX TEMP:  85;

$$

TXZ229>234-239>247-201300-
TEXAS COASTAL BEND AND RIO GRANDE PLAINS

CITY           SKY/WX    TMP DP  RH WIND       PRES   REMARKS
VICTORIA       CLEAR     79  77  94 SE5       29.94R
6HR MIN TEMP:  79; 6HR MAX TEMP:  81;

*BEEVILLE      CLEAR     77  77 100 CALM      29.92R
6HR MIN TEMP:  77; 6HR MAX TEMP:  80;

ROCKPORT       PTCLDY    83  78  85 S6        29.91R HX  93
6HR MIN TEMP:  83; 6HR MAX TEMP:  84;

*PORT ARANSAS  CLEAR     81  78  90 S6        29.91R
6HR MIN TEMP:  81; 6HR MAX TEMP:  83;

*PORT LAVACA   CLEAR     78  76  94 SE3       29.93R
6HR MIN TEMP:  78; 6HR MAX TEMP:  82;

*INGLESIDE     CLEAR     83  77  83 S6        29.91R HX  91
CORPUS CHRISTI PTCLDY    78  76  93 SE7       29.90R
6HR MIN TEMP:  78; 6HR MAX TEMP:  82;

CORPUS NAS     PTCLDY    82  79  90 S8        29.90R HX  92
6HR MIN TEMP:  82; 6HR MAX TEMP:  83;

*ROBSTOWN      NOT AVBL
ALICE          CLEAR     76  74  93 E3        29.90R
6HR MIN TEMP:  76; 6HR MAX TEMP:  80;

KINGSVILLE NAS PTCLDY    80  79  96 SE7       29.90R
6HR MIN TEMP:  80; 6HR MAX TEMP:  82;

COTULLA        CLEAR     78  72  81 SE8       29.91R
6HR MIN TEMP:  78; 6HR MAX TEMP:  83;

*FAITH RANCH   CLEAR     79  72  78 SE12G22   29.88R
LAREDO         CLEAR     80  73  79 SE13      29.91R
6HR MIN TEMP:  80; 6HR MAX TEMP:  85;

$$

TXZ248>255-201300-
DEEP SOUTH TEXAS

CITY           SKY/WX    TMP DP  RH WIND       PRES   REMARKS
BROWNSVILLE    PTCLDY    78  77  96 SE5       29.90R
6HR MIN TEMP:  77; 6HR MAX TEMP:  80;

PORT ISABEL    PTCLDY    82  77  84 SE9       29.89S HX  90
6HR MIN TEMP:  81; 6HR MAX TEMP:  83;

*SOUTH PADRE     N/A     77  77 100 S5        29.90R
HARLINGEN      PTCLDY    79  77  94 SE8       29.88S
6HR MIN TEMP:  77; 6HR MAX TEMP:  80;

*HEBBRONVILLE  MOCLDY    76  74  92 E7        29.92R
MCALLEN        CLEAR     79  75  87 SE7       29.90R
6HR MIN TEMP:  79; 6HR MAX TEMP:  83;

*WESLACO       PTCLDY    80  74  81 SE6       29.89R